QPF
0.01 0.01 0.02 0.02 0.01 0.01 0.01 0.01 0.00 0.00 0.00 0.00 0.00 0.00 0.01 0.02 0.02 0.02 0.03 0.02 0.02 0.02 0.02 0.02 0.02 0.01 0.01 0.02 0.01 0.01 0.01 0.02 0.02 0.01 0.01 0.01 0.01 0.01 0.00 0.00 0.00 0.01 0.01 0.02
0.01 0.00 0.01 0.01 0.01 0.01 0.01 0.01 0.00 0.00 0.00 0.00 0.00 0.00 0.01 0.02 0.02 0.02 0.03 0.02 0.01 0.01 0.01 0.02 0.02 0.02 0.01 0.01 0.01 0.01 0.01 0.02 0.01 0.01 0.01 0.01 0.02 0.02 0.00 0.00 0.00 0.01 0.03 0.02
0.01 0.00 0.01 0.01 0.01 0.01 0.01 0.01 0.01 0.01 0.01 0.01 0.01 0.01 0.01 0.01 0.01 0.02 0.02 0.02 0.01 0.01 0.01 0.01 0.02 0.03 0.03 0.02 0.02 0.01 0.02 0.01 0.01 0.01 0.01 0.01 0.01 0.01 0.00 0.00 0.00 0.01 0.02 0.02
0.00 0.00 0.00 0.00 0.01 0.01 0.01 0.02 0.02 0.02 0.01 0.00 0.00 0.01 0.01 0.02 0.02 0.02 0.01 0.01 0.01 0.01 0.01 0.01 0.01 0.02 0.03 0.03 0.02 0.02 0.02 0.01 0.01 0.00 0.01 0.01 0.01 0.01 0.01 0.01 0.01 0.01 0.01 0.02
0.00 0.00 0.00 0.00 0.01 0.01 0.02 0.03 0.03 0.02 0.01 0.01 0.01 0.02 0.02 0.02 0.02 0.02 0.02 0.02 0.02 0.02 0.02 0.01 0.01 0.01 0.02 0.03 0.03 0.02 0.01 0.01 0.01 0.01 0.01 0.01 0.01 0.01 0.01 0.02 0.02 0.02 0.02 0.02
0.00 0.00 0.00 0.00 0.01 0.01 0.01 0.03 0.03 0.03 0.03 0.02 0.02 0.02 0.01 0.01 0.02 0.01 0.01 0.02 0.02 0.03 0.03 0.02 0.01 0.01 0.01 0.02 0.02 0.02 0.02 0.02 0.02 0.03 0.02 0.02 0.01 0.01 0.01 0.01 0.02 0.03 0.02 0.02
0.01 0.02 0.01 0.01 0.01 0.01 0.01 0.01 0.01 0.03 0.05 0.05 0.05 0.04 0.03 0.02 0.02 0.02 0.02 0.02 0.03 0.03 0.04 0.02 0.01 0.01 0.01 0.01 0.01 0.01 0.02 0.02 0.03 0.04 0.04 0.03 0.02 0.02 0.02 0.01 0.01 0.03 0.02 0.01
0.02 0.02 0.02 0.01 0.01 0.01 0.01 0.00 0.01 0.01 0.02 0.03 0.04 0.05 0.04 0.03 0.03 0.03 0.02 0.02 0.02 0.04 0.04 0.03 0.02 0.02 0.01 0.01 0.01 0.02 0.03 0.03 0.04 0.04 0.04 0.05 0.04 0.03 0.02 0.02 0.02 0.02 0.03 0.02
0.02 0.02 0.02 0.02 0.01 0.01 0.01 0.01 0.01 0.01 0.01 0.02 0.02 0.02 0.02 0.02 0.03 0.03 0.03 0.02 0.03 0.03 0.03 0.03 0.03 0.02 0.02 0.02 0.02 0.01 0.02 0.03 0.04 0.05 0.07 0.06 0.05 0.04 0.03 0.03 0.02 0.03 0.03 0.03
0.01 0.01 0.01 0.02 0.02 0.02 0.02 0.02 0.02 0.02 0.02 0.02 0.01 0.01 0.02 0.02 0.01 0.02 0.01 0.01 0.02 0.02 0.03 0.04 0.04 0.03 0.02 0.02 0.02 0.01 0.01 0.01 0.02 0.04 0.07 0.08 0.06 0.04 0.03 0.03 0.03 0.03 0.03 0.03
0.01 0.01 0.01 0.01 0.01 0.02 0.02 0.03 0.03 0.03 0.03 0.02 0.01 0.01 0.01 0.02 0.02 0.01 0.01 0.01 0.01 0.02 0.02 0.02 0.02 0.02 0.01 0.01 0.01 0.01 0.01 0.01 0.03 0.02 0.03 0.03 0.04 0.03 0.03 0.03 0.03 0.04 0.04 0.04
0.02 0.02 0.02 0.01 0.01 0.01 0.02 0.02 0.02 0.03 0.03 0.04 0.04 0.02 0.02 0.02 0.01 0.01 0.01 0.02 0.02 0.02 0.02 0.02 0.02 0.02 0.01 0.01 0.01 0.01 0.01 0.01 0.02 0.03 0.03 0.02 0.02 0.02 0.02 0.02 0.03 0.02 0.03 0.03
0.03 0.03 0.03 0.02 0.02 0.02 0.01 0.02 0.02 0.02 0.02 0.03 0.03 0.03 0.04 0.05 0.05 0.05 0.05 0.04 0.04 0.04 0.03 0.03 0.03 0.03 0.03 0.02 0.02 0.02 0.02 0.02 0.03 0.04 0.04 0.03 0.04 0.03 0.02 0.01 0.01 0.02 0.02 0.02
0.05 0.05 0.04 0.03 0.02 0.02 0.02 0.01 0.01 0.01 0.02 0.02 0.01 0.02 0.03 0.04 0.04 0.04 0.05 0.05 0.05 0.06 0.07 0.07 0.05 0.04 0.04 0.04 0.03 0.04 0.04 0.04 0.04 0.05 0.05 0.03 0.04 0.04 0.02 0.01 0.01 0.01 0.01 0.01
0.06 0.06 0.06 0.04 0.02 0.02 0.02 0.02 0.02 0.02 0.02 0.03 0.02 0.01 0.01 0.01 0.01 0.02 0.01 0.01 0.02 0.02 0.03 0.03 0.05 0.05 0.04 0.04 0.05 0.04 0.03 0.04 0.04 0.04 0.05 0.05 0.04 0.04 0.03 0.01 0.01 0.01 0.01 0.01
0.06 0.05 0.06 0.05 0.03 0.01 0.02 0.02 0.01 0.02 0.02 0.02 0.02 0.02 0.01 0.01 0.01 0.02 0.01 0.02 0.02 0.02 0.03 0.02 0.03 0.03 0.03 0.03 0.02 0.02 0.02 0.02 0.02 0.02 0.03 0.03 0.05 0.05 0.05 0.02 0.01 0.01 0.01 0.02
0.07 0.06 0.04 0.04 0.04 0.03 0.03 0.02 0.01 0.01 0.01 0.01 0.01 0.02 0.02 0.01 0.01 0.01 0.01 0.01 0.02 0.03 0.04 0.03 0.03 0.02 0.02 0.01 0.01 0.01 0.02 0.02 0.03 0.03 0.03 0.03 0.03 0.03 0.04 0.03 0.01 0.01 0.01 0.03
0.07 0.07 0.06 0.04 0.04 0.03 0.03 0.03 0.02 0.01 0.01 0.01 0.01 0.01 0.02 0.02 0.01 0.01 0.00 0.01 0.02 0.03 0.02 0.01 0.02 0.02 0.02 0.01 0.01 0.01 0.03 0.04 0.04 0.04 0.02 0.02 0.02 0.02 0.02 0.02 0.01 0.01 0.02 0.02
0.07 0.08 0.07 0.05 0.04 0.03 0.03 0.03 0.02 0.02 0.02 0.02 0.01 0.02 0.02 0.01 0.02 0.02 0.01 0.01 0.02 0.02 0.01 0.01 0.01 0.01 0.01 0.01 0.01 0.02 0.03 0.03 0.03 0.04 0.03 0.02 0.02 0.01 0.01 0.01 0.01 0.01 0.01 0.01
0.04 0.05 0.05 0.05 0.04 0.04 0.04 0.04 0.04 0.04 0.04 0.02 0.02 0.02 0.02 0.02 0.03 0.04 0.02 0.01 0.01 0.00 0.01 0.01 0.01 0.01 0.02 0.02 0.02 0.02 0.02 0.02 0.02 0.03 0.04 0.02 0.01 0.01 0.01 0.00 0.00 0.00 0.00 0.01
0.04 0.04 0.05 0.05 0.05 0.05 0.04 0.04 0.04 0.04 0.04 0.03 0.02 0.02 0.02 0.03 0.02 0.02 0.02 0.01 0.01 0.01 0.02 0.03 0.02 0.02 0.01 0.02 0.02 0.03 0.02 0.02 0.02 0.02 0.02 0.02 0.01 0.01 0.00 0.00 0.00 0.00 0.00 0.00
0.06 0.05 0.05 0.05 0.05 0.04 0.03 0.03 0.03 0.03 0.02 0.02 0.01 0.02 0.02 0.02 0.02 0.02 0.02 0.02 0.02 0.02 0.03 0.03 0.03 0.02 0.01 0.02 0.02 0.03 0.03 0.03 0.02 0.02 0.02 0.02 0.02 0.01 0.00 0.00 0.00 0.00 0.00 0.00
0.05 0.03 0.03 0.02 0.02 0.02 0.02 0.02 0.02 0.02 0.02 0.02 0.02 0.02 0.02 0.02 0.02 0.02 0.03 0.02 0.02 0.02 0.02 0.02 0.02 0.02 0.02 0.02 0.01 0.02 0.02 0.02 0.03 0.02 0.02 0.01 0.01 0.01 0.01 0.00 0.00 0.00 0.00 0.00
0.04 0.03 0.03 0.03 0.02 0.02 0.02 0.02 0.01 0.02 0.02 0.02 0.02 0.03 0.03 0.02 0.02 0.03 0.03 0.03 0.03 0.02 0.02 0.02 0.02 0.02 0.02 0.01 0.02 0.02 0.02 0.02 0.02 0.02 0.01 0.01 0.01 0.01 0.01 0.00 0.00 0.00 0.01 0.01
0.01 0.02 0.03 0.03 0.03 0.04 0.04 0.04 0.04 0.03 0.03 0.03 0.04 0.05 0.04 0.03 0.03 0.04 0.02 0.02 0.02 0.02 0.02 0.02 0.03 0.03 0.03 0.03 0.03 0.03 0.03 0.02 0.02 0.01 0.01 0.01 0.01 0.01 0.01 0.01 0.00 0.00 0.01 0.01
0.02 0.02 0.03 0.04 0.04 0.03 0.03 0.03 0.03 0.04 0.04 0.04 0.05 0.04 0.04 0.03 0.03 0.03 0.02 0.01 0.02 0.02 0.02 0.02 0.02 0.03 0.04 0.04 0.04 0.04 0.03 0.02 0.02 0.02 0.02 0.01 0.01 0.01 0.01 0.00 0.00 0.00 0.00 0.01
0.02 0.03 0.04 0.04 0.04 0.03 0.02 0.02 0.02 0.02 0.03 0.04 0.04 0.03 0.02 0.02 0.02 0.03 0.03 0.03 0.02 0.02 0.02 0.02 0.02 0.03 0.04 0.03 0.04 0.04 0.03 0.02 0.01 0.02 0.02 0.01 0.01 0.01 0.00 0.00 0.00 0.00 0.00 0.00
MSLP
1007.09 1007.62 1008.16 1008.67 1009.09 1009.38 1009.50 1009.44 1009.22 1008.88 1008.48 1008.10 1007.82 1007.69 1007.75 1008.00 1008.42 1008.95 1009.54 1010.11 1010.60 1010.99 1011.26 1011.42 1011.49 1011.52 1011.52 1011.52 1011.52 1011.52 1011.49 1011.41 1011.26 1011.04 1010.75 1010.40 1010.05 1009.72 1009.45 1009.26 1009.16 1009.15 1009.22 1009.33
1007.18 1007.59 1007.96 1008.28 1008.50 1008.59 1008.55 1008.38 1008.12 1007.79 1007.47 1007.21 1007.07 1007.08 1007.27 1007.62 1008.10 1008.66 1009.23 1009.77 1010.23 1010.59 1010.84 1011.01 1011.10 1011.16 1011.21 1011.26 1011.31 1011.35 1011.35 1011.30 1011.18 1010.99 1010.73 1010.42 1010.11 1009.82 1009.58 1009.43 1009.36 1009.37 1009.46 1009.59
1007.46 1007.74 1007.97 1008.13 1008.18 1008.13 1007.97 1007.72 1007.42 1007.10 1006.83 1006.64 1006.58 1006.67 1006.91 1007.29 1007.77 1008.31 1008.85 1009.36 1009.79 1010.13 1010.38 1010.56 1010.69 1010.80 1010.89 1010.98 1011.06 1011.13 1011.16 1011.13 1011.03 1010.87 1010.65 1010.40 1010.14 1009.91 1009.73 1009.62 1009.59 1009.63 1009.73 1009.86
1007.90 1008.07 1008.18 1008.21 1008.15 1008.01 1007.78 1007.49 1007.17 1006.86 1006.60 1006.44 1006.40 1006.49 1006.72 1007.06 1007.49 1007.97 1008.45 1008.91 1009.31 1009.64 1009.92 1010.13 1010.31 1010.46 1010.60 1010.72 1010.83 1010.91 1010.95 1010.93 1010.86 1010.73 1010.55 1010.35 1010.16 1009.99 1009.87 1009.81 1009.81 1009.87 1009.98 1010.11
1008.40 1008.47 1008.50 1008.46 1008.35 1008.17 1007.92 1007.63 1007.32 1007.02 1006.76 1006.59 1006.51 1006.55 1006.70 1006.95 1007.28 1007.66 1008.07 1008.47 1008.84 1009.18 1009.48 1009.75 1009.98 1010.18 1010.36 1010.52 1010.64 1010.73 1010.77 1010.76 1010.70 1010.59 1010.46 1010.32 1010.18 1010.07 1010.01 1009.99 1010.02 1010.09 1010.19 1010.30
1008.84 1008.86 1008.84 1008.77 1008.66 1008.49 1008.27 1008.02 1007.74 1007.46 1007.21 1007.00 1006.86 1006.80 1006.83 1006.95 1007.15 1007.41 1007.73 1008.07 1008.42 1008.77 1009.11 1009.43 1009.71 1009.97 1010.20 1010.38 1010.51 1010.60 1010.64 1010.63 1010.58 1010.50 1010.41 1010.32 1010.24 1010.19 1010.16 1010.18 1010.22 1010.28 1010.35 1010.43
1009.16 1009.13 1009.09 1009.03 1008.96 1008.84 1008.70 1008.51 1008.29 1008.05 1007.80 1007.55 1007.34 1007.17 1007.07 1007.04 1007.10 1007.24 1007.45 1007.73 1008.06 1008.42 1008.79 1009.16 1009.51 1009.81 1010.08 1010.28 1010.43 1010.52 1010.56 1010.55 1010.52 1010.47 1010.41 1010.37 1010.34 1010.33 1010.34 1010.36 1010.40 1010.43 1010.47 1010.50
1009.31 1009.24 1009.20 1009.17 1009.14 1009.11 1009.06 1008.97 1008.83 1008.64 1008.41 1008.15 1007.87 1007.60 1007.37 1007.20 1007.12 1007.14 1007.26 1007.47 1007.77 1008.13 1008.53 1008.94 1009.33 1009.68 1009.97 1010.20 1010.35 1010.45 1010.49 1010.50 1010.48 1010.46 1010.45 1010.44 1010.46 1010.48 1010.51 1010.54 1010.56 1010.56 1010.55 1010.54
1009.30 1009.20 1009.15 1009.14 1009.17 1009.22 1009.27 1009.28 1009.24 1009.13 1008.94 1008.67 1008.36 1008.02 1007.69 1007.41 1007.21 1007.12 1007.15 1007.30 1007.56 1007.91 1008.32 1008.74 1009.15 1009.52 1009.83 1010.07 1010.23 1010.33 1010.38 1010.41 1010.42 1010.43 1010.46 1010.50 1010.55 1010.61 1010.65 1010.68 1010.68 1010.65 1010.60 1010.54
1009.22 1009.06 1008.98 1008.97 1009.04 1009.16 1009.30 1009.41 1009.47 1009.45 1009.32 1009.09 1008.78 1008.40 1008.02 1007.66 1007.37 1007.19 1007.14 1007.22 1007.44 1007.76 1008.14 1008.55 1008.96 1009.33 1009.63 1009.87 1010.03 1010.13 1010.19 1010.23 1010.27 1010.32 1010.40 1010.48 1010.57 1010.66 1010.72 1010.74 1010.73 1010.67 1010.59 1010.50
1009.16 1008.92 1008.77 1008.73 1008.80 1008.96 1009.16 1009.37 1009.52 1009.59 1009.55 1009.39 1009.11 1008.74 1008.34 1007.94 1007.60 1007.36 1007.24 1007.26 1007.42 1007.68 1008.02 1008.39 1008.76 1009.09 1009.37 1009.57 1009.72 1009.81 1009.88 1009.93 1010.00 1010.09 1010.21 1010.34 1010.47 1010.58 1010.66 1010.69 1010.67 1010.61 1010.51 1010.40
1009.21 1008.85 1008.61 1008.50 1008.53 1008.69 1008.93 1009.20 1009.44 1009.61 1009.66 1009.58 1009.37 1009.05 1008.67 1008.28 1007.92 1007.64 1007.47 1007.43 1007.51 1007.71 1007.97 1008.27 1008.57 1008.84 1009.05 1009.21 1009.32 1009.39 1009.45 1009.52 1009.61 1009.73 1009.88 1010.04 1010.21 1010.35 1010.46 1010.51 1010.50 1010.43 1010.34 1010.23
1009.44 1008.93 1008.56 1008.35 1008.32 1008.45 1008.70 1009.01 1009.32 1009.57 1009.72 1009.73 1009.61 1009.37 1009.04 1008.67 1008.32 1008.02 1007.82 1007.72 1007.73 1007.84 1008.01 1008.22 1008.43 1008.61 1008.75 1008.84 1008.89 1008.93 1008.97 1009.02 1009.12 1009.25 1009.42 1009.62 1009.81 1009.98 1010.11 1010.18 1010.19 1010.14 1010.06 1009.97
1009.83 1009.18 1008.67 1008.34 1008.23 1008.31 1008.55 1008.87 1009.23 1009.55 1009.79 1009.90 1009.87 1009.71 1009.45 1009.13 1008.80 1008.50 1008.27 1008.12 1008.06 1008.08 1008.16 1008.26 1008.36 1008.45 1008.49 1008.51 1008.50 1008.48 1008.48 1008.51 1008.59 1008.72 1008.90 1009.10 1009.31 1009.49 1009.64 1009.73 1009.77 1009.75 1009.69 1009.62
1010.36 1009.57 1008.93 1008.51 1008.31 1008.34 1008.54 1008.87 1009.26 1009.63 1009.93 1010.12 1010.17 1010.09 1009.90 1009.63 1009.33 1009.04 1008.79 1008.59 1008.47 1008.41 1008.40 1008.40 1008.40 1008.39 1008.34 1008.27 1008.19 1008.11 1008.05 1008.04 1008.09 1008.19 1008.35 1008.54 1008.75 1008.94 1009.09 1009.20 1009.26 1009.26 1009.23 1009.19
1010.96 1010.07 1009.34 1008.84 1008.57 1008.55 1008.73 1009.04 1009.44 1009.84 1010.18 1010.42 1010.53 1010.50 1010.37 1010.14 1009.87 1009.59 1009.32 1009.10 1008.93 1008.80 1008.70 1008.62 1008.53 1008.43 1008.30 1008.15 1007.99 1007.85 1007.74 1007.67 1007.66 1007.72 1007.84 1008.00 1008.18 1008.35 1008.51 1008.62 1008.69 1008.72 1008.72 1008.70
1011.56 1010.62 1009.85 1009.31 1009.01 1008.96 1009.11 1009.40 1009.78 1010.18 1010.53 1010.79 1010.92 1010.93 1010.82 1010.62 1010.37 1010.09 1009.82 1009.57 1009.36 1009.19 1009.03 1008.88 1008.73 1008.55 1008.36 1008.14 1007.92 1007.71 1007.53 1007.40 1007.33 1007.33 1007.39 1007.50 1007.63 1007.78 1007.91 1008.02 1008.09 1008.14 1008.15 1008.15
1012.12 1011.19 1010.43 1009.89 1009.59 1009.53 1009.65 1009.92 1010.27 1010.63 1010.96 1011.20 1011.32 1011.33 1011.22 1011.03 1010.78 1010.50 1010.22 1009.96 1009.73 1009.52 1009.33 1009.15 1008.94 1008.72 1008.48 1008.21 1007.93 1007.67 1007.43 1007.23 1007.09 1007.02 1007.00 1007.04 1007.12 1007.22 1007.32 1007.41 1007.48 1007.52 1007.54 1007.55
1012.61 1011.74 1011.05 1010.55 1010.28 1010.21 1010.32 1010.55 1010.84 1011.15 1011.42 1011.60 1011.69 1011.66 1011.53 1011.32 1011.07 1010.79 1010.50 1010.24 1010.00 1009.77 1009.56 1009.35 1009.13 1008.88 1008.60 1008.30 1007.98 1007.67 1007.37 1007.11 1006.91 1006.76 1006.67 1006.64 1006.64 1006.68 1006.74 1006.80 1006.85 1006.88 1006.91 1006.92
1013.04 1012.28 1011.67 1011.24 1011.01 1010.95 1011.03 1011.21 1011.44 1011.67 1011.85 1011.96 1011.98 1011.89 1011.73 1011.50 1011.23 1010.94 1010.65 1010.39 1010.14 1009.92 1009.70 1009.48 1009.25 1008.98 1008.69 1008.36 1008.02 1007.67 1007.33 1007.02 1006.75 1006.53 1006.36 1006.26 1006.20 1006.17 1006.18 1006.19 1006.21 1006.23 1006.24 1006.25
1013.43 1012.79 1012.28 1011.93 1011.73 1011.67 1011.71 1011.83 1011.98 1012.11 1012.20 1012.23 1012.16 1012.02 1011.81 1011.55 1011.26 1010.97 1010.69 1010.42 1010.18 1009.96 1009.74 1009.52 1009.28 1009.01 1008.70 1008.37 1008.00 1007.63 1007.26 1006.90 1006.58 1006.31 1006.08 1005.91 1005.78 1005.70 1005.64 1005.61 1005.59 1005.57 1005.56 1005.56
1013.80 1013.28 1012.86 1012.57 1012.39 1012.32 1012.32 1012.36 1012.42 1012.46 1012.45 1012.38 1012.24 1012.04 1011.79 1011.51 1011.21 1010.92 1010.64 1010.38 1010.14 1009.92 1009.70 1009.47 1009.23 1008.95 1008.64 1008.30 1007.93 1007.54 1007.15 1006.77 1006.42 1006.10 1005.82 1005.59 1005.41 1005.27 1005.15 1005.06 1004.99 1004.94 1004.89 1004.86
1014.18 1013.75 1013.40 1013.14 1012.97 1012.86 1012.80 1012.77 1012.73 1012.67 1012.57 1012.42 1012.23 1011.98 1011.71 1011.41 1011.11 1010.82 1010.55 1010.29 1010.06 1009.83 1009.60 1009.37 1009.11 1008.83 1008.51 1008.16 1007.79 1007.40 1007.01 1006.62 1006.25 1005.91 1005.61 1005.34 1005.11 1004.90 1004.73 1004.58 1004.45 1004.34 1004.25 1004.18
1014.56 1014.19 1013.88 1013.63 1013.44 1013.28 1013.16 1013.04 1012.91 1012.77 1012.59 1012.39 1012.15 1011.88 1011.59 1011.30 1011.01 1010.72 1010.45 1010.20 1009.95 1009.71 1009.47 1009.21 1008.94 1008.64 1008.32 1007.97 1007.61 1007.23 1006.85 1006.47 1006.11 1005.77 1005.45 1005.16 1004.88 1004.63 1004.40 1004.18 1003.99 1003.81 1003.66 1003.54
1014.93 1014.59 1014.30 1014.04 1013.80 1013.59 1013.40 1013.20 1013.00 1012.79 1012.56 1012.31 1012.05 1011.77 1011.49 1011.20 1010.92 1010.64 1010.37 1010.11 1009.85 1009.58 1009.31 1009.03 1008.73 1008.42 1008.09 1007.74 1007.39 1007.04 1006.68 1006.33 1006.00 1005.67 1005.35 1005.04 1004.74 1004.44 1004.16 1003.87 1003.60 1003.35 1003.13 1002.95
1015.28 1014.96 1014.66 1014.37 1014.09 1013.82 1013.56 1013.30 1013.04 1012.78 1012.51 1012.24 1011.97 1011.70 1011.42 1011.15 1010.87 1010.59 1010.31 1010.03 1009.74 1009.44 1009.13 1008.81 1008.49 1008.15 1007.82 1007.48 1007.15 1006.83 1006.52 1006.21 1005.90 1005.60 1005.30 1004.98 1004.66 1004.32 1003.98 1003.63 1003.29 1002.96 1002.67 1002.42
1015.60 1015.28 1014.97 1014.65 1014.33 1014.01 1013.70 1013.39 1013.09 1012.79 1012.51 1012.23 1011.95 1011.68 1011.41 1011.14 1010.86 1010.57 1010.27 1009.95 1009.62 1009.28 1008.92 1008.56 1008.21 1007.86 1007.52 1007.20 1006.89 1006.61 1006.34 1006.07 1005.81 1005.54 1005.26 1004.94 1004.60 1004.23 1003.84 1003.43 1003.01 1002.61 1002.25 1001.95
Thickness
5695 5700 5700 5697 5697 5693 5685 5681 5673 5679 5682 5693 5696 5698 5699 5700 5700 5699 5699 5698 5697 5696 5694 5692 5690 5688 5686 5683 5681 5679 5676 5673 5671 5670 5667 5665 5663 5661 5659 5658 5657 5656 5654 5653
5692 5699 5696 5692 5696 5695 5691 5689 5684 5685 5687 5698 5700 5698 5697 5697 5697 5697 5698 5698 5697 5696 5693 5691 5690 5687 5684 5682 5680 5677 5674 5672 5670 5667 5665 5663 5661 5659 5656 5655 5653 5652 5651 5651
5676 5687 5689 5681 5694 5694 5692 5693 5688 5683 5691 5696 5694 5694 5695 5696 5696 5697 5697 5697 5696 5694 5693 5692 5690 5687 5684 5681 5679 5675 5672 5670 5668 5666 5663 5661 5659 5656 5654 5652 5651 5649 5649 5649
5666 5674 5667 5687 5703 5701 5695 5694 5694 5693 5694 5694 5695 5696 5697 5697 5696 5696 5697 5696 5695 5694 5692 5691 5689 5686 5683 5680 5677 5673 5670 5668 5666 5663 5661 5659 5657 5655 5652 5651 5649 5648 5648 5647
5657 5659 5669 5687 5697 5695 5689 5688 5694 5692 5692 5692 5693 5692 5692 5696 5697 5697 5697 5695 5694 5692 5691 5689 5686 5684 5681 5677 5674 5671 5669 5666 5664 5662 5660 5657 5655 5654 5652 5650 5649 5648 5648 5647
5655 5656 5657 5679 5696 5699 5690 5680 5692 5690 5689 5688 5686 5677 5683 5694 5694 5694 5694 5692 5691 5689 5687 5684 5683 5681 5677 5674 5671 5669 5668 5666 5664 5661 5658 5657 5655 5653 5651 5650 5649 5648 5647 5646
5651 5651 5662 5682 5691 5692 5671 5675 5689 5688 5686 5684 5681 5681 5685 5690 5690 5690 5688 5687 5686 5684 5682 5680 5679 5677 5674 5671 5669 5669 5667 5665 5662 5660 5657 5655 5653 5652 5651 5649 5647 5646 5646 5645
5646 5645 5656 5682 5682 5675 5676 5684 5685 5685 5684 5682 5681 5682 5682 5683 5684 5684 5682 5681 5680 5678 5676 5675 5674 5672 5670 5668 5668 5666 5664 5662 5659 5657 5655 5654 5651 5650 5648 5647 5645 5644 5643 5643
5653 5657 5670 5675 5676 5680 5679 5679 5681 5681 5681 5680 5678 5677 5678 5678 5678 5677 5677 5676 5675 5673 5671 5670 5669 5668 5666 5666 5665 5663 5660 5657 5656 5654 5652 5651 5649 5647 5646 5644 5643 5642 5641 5641
5651 5660 5667 5670 5673 5676 5676 5677 5679 5679 5678 5676 5674 5674 5674 5673 5672 5671 5671 5671 5670 5668 5666 5665 5665 5665 5664 5664 5662 5659 5656 5654 5652 5650 5649 5648 5646 5645 5643 5642 5641 5641 5640 5639
5646 5656 5661 5667 5668 5670 5672 5673 5673 5674 5673 5672 5670 5669 5669 5668 5667 5667 5666 5666 5665 5663 5661 5661 5662 5661 5661 5660 5658 5655 5653 5651 5649 5647 5646 5644 5643 5642 5642 5642 5641 5640 5639 5639
5642 5652 5651 5657 5664 5666 5665 5665 5667 5667 5666 5667 5666 5665 5664 5662 5662 5661 5660 5660 5659 5658 5657 5657 5657 5657 5657 5656 5654 5652 5649 5647 5645 5644 5642 5641 5640 5639 5640 5640 5640 5640 5639 5638
5645 5651 5651 5656 5659 5661 5660 5661 5661 5662 5662 5661 5661 5660 5658 5656 5656 5655 5654 5655 5654 5654 5653 5653 5652 5652 5652 5652 5651 5648 5645 5643 5641 5640 5639 5638 5637 5637 5636 5637 5638 5638 5638 5637
5640 5642 5644 5648 5650 5653 5654 5655 5655 5655 5655 5655 5655 5654 5652 5650 5649 5649 5649 5650 5650 5650 5649 5649 5648 5648 5649 5648 5647 5645 5643 5641 5638 5637 5636 5635 5635 5634 5634 5634 5634 5635 5635 5635
5633 5635 5637 5641 5643 5644 5646 5646 5645 5645 5646 5646 5646 5646 5646 5644 5644 5644 5645 5645 5644 5644 5644 5644 5644 5644 5645 5645 5643 5641 5640 5639 5637 5634 5633 5633 5632 5632 5631 5631 5631 5631 5632 5632
5624 5627 5630 5631 5633 5634 5635 5635 5635 5636 5637 5637 5637 5638 5639 5640 5640 5639 5639 5638 5637 5637 5639 5639 5639 5640 5640 5639 5638 5637 5636 5635 5634 5632 5631 5630 5629 5629 5628 5628 5628 5628 5629 5629
5613 5615 5617 5619 5622 5623 5625 5626 5627 5629 5630 5630 5631 5632 5632 5632 5631 5631 5632 5632 5633 5633 5634 5634 5634 5635 5634 5634 5633 5632 5632 5631 5630 5629 5628 5627 5626 5626 5626 5625 5625 5626 5627 5627
5607 5609 5610 5612 5614 5615 5616 5618 5619 5620 5622 5624 5624 5624 5623 5623 5623 5624 5626 5626 5626 5627 5627 5628 5629 5629 5629 5628 5627 5627 5627 5627 5626 5625 5625 5624 5623 5623 5622 5622 5623 5623 5624 5624
5599 5601 5603 5604 5606 5607 5608 5610 5611 5613 5613 5615 5615 5615 5615 5616 5616 5616 5617 5618 5618 5619 5621 5622 5622 5622 5622 5623 5622 5621 5621 5621 5620 5620 5620 5619 5618 5619 5618 5619 5620 5621 5622 5622
5591 5593 5595 5596 5598 5599 5601 5602 5604 5605 5606 5607 5607 5608 5608 5608 5609 5609 5609 5610 5611 5613 5615 5616 5616 5616 5616 5617 5617 5616 5616 5616 5616 5615 5615 5614 5614 5614 5615 5616 5617 5617 5618 5618
5580 5583 5585 5587 5589 5591 5593 5595 5596 5597 5598 5599 5599 5600 5601 5602 5602 5602 5601 5602 5605 5607 5608 5609 5609 5610 5610 5610 5610 5611 5610 5610 5610 5610 5610 5610 5610 5610 5611 5612 5613 5614 5615 5615
5569 5571 5574 5577 5580 5582 5585 5586 5588 5590 5591 5592 5593 5594 5594 5594 5595 5595 5596 5597 5600 5600 5601 5602 5603 5604 5604 5604 5604 5604 5604 5604 5604 5604 5605 5605 5606 5606 5607 5608 5609 5610 5611 5611
5559 5562 5565 5568 5570 5573 5576 5579 5581 5583 5584 5586 5587 5587 5587 5587 5588 5588 5589 5592 5594 5594 5595 5597 5597 5597 5597 5598 5598 5598 5598 5599 5599 5599 5600 5601 5602 5603 5604 5604 5605 5606 5606 5606
5551 5555 5558 5560 5563 5565 5567 5570 5573 5575 5577 5578 5580 5581 5581 5581 5582 5584 5586 5587 5588 5589 5591 5591 5591 5591 5591 5592 5592 5593 5594 5594 5594 5595 5596 5597 5598 5599 5600 5600 5600 5601 5601 5601
5544 5547 5550 5552 5554 5556 5559 5561 5564 5566 5568 5570 5572 5574 5575 5576 5577 5578 5580 5582 5583 5583 5584 5585 5586 5586 5586 5587 5588 5589 5590 5591 5592 5592 5593 5593 5594 5595 5596 5596 5595 5596 5596 5596
5536 5539 5542 5545 5547 5549 5551 5553 5555 5558 5560 5563 5565 5567 5569 5571 5572 5572 5573 5576 5577 5577 5578 5579 5580 5580 5581 5582 5583 5584 5585 5586 5587 5588 5589 5589 5590 5590 5591 5591 5591 5591 5591 5590
5529 5532 5535 5538 5541 5543 5545 5547 5548 5551 5553 5555 5557 5560 5562 5564 5564 5565 5567 5569 5570 5571 5571 5572 5573 5574 5575 5576 5577 5579 5580 5581 5582 5582 5583 5584 5584 5585 5586 5586 5586 5585 5584 5584